TimePDT,TemperatureF,Dew PointF,Humidity,Sea Level PressureIn,VisibilityMPH,Wind Direction,Wind SpeedMPH,Gust SpeedMPH,PrecipitationIn,Events,Conditions,WindDirDegrees,DateUTC
12:15 AM,61.7,52.7,72,29.88,10.0,WSW,5.8,-,N/A,,Clear,240,2013-09-16 07:15:00
12:35 AM,61.3,52.9,74,29.89,10.0,WSW,4.6,-,N/A,,Clear,250,2013-09-16 07:35:00
12:55 AM,60.8,52.9,75,29.89,10.0,WSW,6.9,-,N/A,,Clear,250,2013-09-16 07:55:00
1:15 AM,59.9,52.0,75,29.90,10.0,West,8.1,-,N/A,,Clear,260,2013-09-16 08:15:00
1:35 AM,59.4,49.8,71,29.90,10.0,West,8.1,-,N/A,,Clear,270,2013-09-16 08:35:00
1:55 AM,59.2,49.1,69,29.90,10.0,West,10.4,-,N/A,,Clear,260,2013-09-16 08:55:00
2:15 AM,57.6,48.2,71,29.91,10.0,WSW,10.4,-,N/A,,Clear,250,2013-09-16 09:15:00
2:35 AM,57.2,48.0,71,29.91,10.0,WSW,8.1,-,N/A,,Clear,250,2013-09-16 09:35:00
2:55 AM,56.8,47.5,71,29.92,10.0,West,10.4,-,N/A,,Clear,270,2013-09-16 09:55:00
3:15 AM,56.1,47.5,73,29.93,10.0,WSW,3.5,-,N/A,,Clear,250,2013-09-16 10:15:00
3:35 AM,55.9,47.1,72,29.93,10.0,SW,4.6,-,N/A,,Clear,230,2013-09-16 10:35:00
3:55 AM,55.8,46.6,71,29.94,10.0,SW,3.5,-,N/A,,Clear,220,2013-09-16 10:55:00
4:15 AM,55.8,46.4,71,29.94,10.0,WSW,4.6,-,N/A,,Clear,240,2013-09-16 11:15:00
4:35 AM,55.8,46.4,71,29.94,10.0,West,3.5,-,N/A,,Clear,260,2013-09-16 11:35:00
4:55 AM,54.7,46.0,73,29.94,10.0,WSW,3.5,-,N/A,,Clear,240,2013-09-16 11:55:00
5:15 AM,54.5,45.3,71,29.94,10.0,Calm,Calm,-,N/A,,Clear,0,2013-09-16 12:15:00
5:35 AM,54.5,45.7,72,29.95,10.0,Calm,Calm,-,N/A,,Clear,0,2013-09-16 12:35:00
5:55 AM,52.0,45.7,79,29.95,10.0,ESE,3.5,-,N/A,,Clear,110,2013-09-16 12:55:00
6:15 AM,50.9,45.3,81,29.95,10.0,East,5.8,-,N/A,,Clear,100,2013-09-16 13:15:00
6:35 AM,50.0,45.9,86,29.96,10.0,ESE,9.2,-,N/A,,Clear,120,2013-09-16 13:35:00
6:55 AM,51.4,46.4,83,29.96,10.0,SE,6.9,-,N/A,,Clear,140,2013-09-16 13:55:00
7:15 AM,53.1,46.6,79,29.97,10.0,ESE,5.8,-,N/A,,Clear,110,2013-09-16 14:15:00
7:35 AM,53.4,46.4,77,29.97,10.0,ESE,5.8,-,N/A,,Clear,120,2013-09-16 14:35:00
7:55 AM,54.7,46.4,74,29.97,10.0,ESE,4.6,-,N/A,,Clear,110,2013-09-16 14:55:00
8:15 AM,55.6,46.4,71,29.97,10.0,ESE,5.8,-,N/A,,Clear,110,2013-09-16 15:15:00
8:35 AM,56.3,46.8,70,29.97,10.0,East,5.8,-,N/A,,Clear,100,2013-09-16 15:35:00
8:55 AM,58.1,47.8,69,29.98,10.0,East,4.6,-,N/A,,Clear,80,2013-09-16 15:55:00
9:15 AM,59.5,48.0,66,29.98,10.0,Calm,Calm,-,N/A,,Clear,0,2013-09-16 16:15:00
9:35 AM,60.4,47.3,62,29.98,10.0,Calm,Calm,-,N/A,,Clear,0,2013-09-16 16:35:00
9:55 AM,63.1,47.3,56,29.98,10.0,Calm,Calm,-,N/A,,Clear,0,2013-09-16 16:55:00
10:15 AM,63.7,47.5,56,29.98,10.0,NW,3.5,-,N/A,,Clear,310,2013-09-16 17:15:00
10:35 AM,65.7,47.3,51,29.98,10.0,West,5.8,-,N/A,,Clear,280,2013-09-16 17:35:00
10:55 AM,66.7,46.8,49,29.97,10.0,West,5.8,-,N/A,,Clear,280,2013-09-16 17:55:00
11:15 AM,68.0,46.0,45,29.97,10.0,NW,5.8,-,N/A,,Clear,310,2013-09-16 18:15:00
11:35 AM,68.2,45.0,43,29.97,10.0,West,4.6,-,N/A,,Clear,280,2013-09-16 18:35:00
11:55 AM,68.7,44.8,42,29.97,10.0,West,3.5,-,N/A,,Clear,280,2013-09-16 18:55:00
12:15 PM,71.1,44.8,39,29.96,10.0,WNW,5.8,-,N/A,,Clear,290,2013-09-16 19:15:00
12:35 PM,71.2,43.7,37,29.96,10.0,West,5.8,-,N/A,,Clear,270,2013-09-16 19:35:00
12:55 PM,73.6,43.7,34,29.95,10.0,NW,10.4,16.1,N/A,,Clear,320,2013-09-16 19:55:00
1:15 PM,73.8,43.7,34,29.95,10.0,WNW,10.4,-,N/A,,Scattered Clouds,300,2013-09-16 20:15:00
1:35 PM,74.7,43.5,33,29.94,10.0,WNW,10.4,-,N/A,,Mostly Cloudy,290,2013-09-16 20:35:00
1:55 PM,75.0,43.2,32,29.93,10.0,WNW,10.4,-,N/A,,Scattered Clouds,290,2013-09-16 20:55:00
2:15 PM,75.7,43.0,31,29.92,10.0,West,11.5,-,N/A,,Clear,270,2013-09-16 21:15:00
2:35 PM,75.4,42.8,31,29.92,10.0,West,8.1,-,N/A,,Clear,270,2013-09-16 21:35:00
2:55 PM,76.3,42.3,30,29.91,10.0,WSW,6.9,17.3,N/A,,Clear,250,2013-09-16 21:55:00
3:15 PM,75.9,42.1,30,29.90,10.0,NNW,4.6,-,N/A,,Clear,330,2013-09-16 22:15:00
3:35 PM,75.7,41.5,29,29.90,10.0,WSW,3.5,-,N/A,,Clear,250,2013-09-16 22:35:00
3:55 PM,75.6,41.4,29,29.90,10.0,WNW,10.4,-,N/A,,Clear,290,2013-09-16 22:55:00
4:15 PM,73.4,41.0,31,29.90,10.0,West,3.5,-,N/A,,Clear,280,2013-09-16 23:15:00
4:35 PM,74.8,40.6,29,29.89,10.0,WNW,8.1,-,N/A,,Clear,300,2013-09-16 23:35:00
4:55 PM,74.8,40.6,29,29.89,10.0,WNW,9.2,-,N/A,,Clear,300,2013-09-16 23:55:00
5:15 PM,73.9,40.6,30,29.89,10.0,West,8.1,-,N/A,,Clear,280,2013-09-17 00:15:00
5:35 PM,74.8,40.8,29,29.88,10.0,West,9.2,-,N/A,,Clear,280,2013-09-17 00:35:00
5:55 PM,72.9,41.0,32,29.88,10.0,West,11.5,-,N/A,,Clear,280,2013-09-17 00:55:00
6:15 PM,71.6,41.7,34,29.89,10.0,West,10.4,-,N/A,,Scattered Clouds,270,2013-09-17 01:15:00
6:35 PM,71.1,43.2,37,29.89,10.0,WNW,8.1,-,N/A,,Mostly Cloudy,290,2013-09-17 01:35:00
6:55 PM,70.2,42.8,37,29.89,10.0,WNW,9.2,-,N/A,,Overcast,290,2013-09-17 01:55:00
7:15 PM,68.2,44.1,42,29.90,10.0,NW,8.1,-,N/A,,Scattered Clouds,310,2013-09-17 02:15:00
7:35 PM,66.9,44.6,45,29.90,10.0,WNW,3.5,-,N/A,,Clear,300,2013-09-17 02:35:00
7:55 PM,65.3,45.0,48,29.90,10.0,North,3.5,-,N/A,,Clear,10,2013-09-17 02:55:00
8:15 PM,64.8,45.0,49,29.90,10.0,Calm,Calm,-,N/A,,Clear,0,2013-09-17 03:15:00
8:35 PM,62.8,44.6,51,29.91,10.0,Calm,Calm,-,N/A,,Clear,0,2013-09-17 03:35:00
8:55 PM,63.1,44.4,50,29.91,10.0,Calm,Calm,-,N/A,,Clear,0,2013-09-17 03:55:00
9:15 PM,63.0,44.6,51,29.91,10.0,NNW,5.8,-,N/A,,Clear,340,2013-09-17 04:15:00
9:35 PM,61.5,44.6,54,29.90,10.0,Calm,Calm,-,N/A,,Clear,0,2013-09-17 04:35:00
9:55 PM,59.7,44.2,57,29.90,10.0,WNW,6.9,-,N/A,,Clear,290,2013-09-17 04:55:00
10:15 PM,59.4,44.6,58,29.90,10.0,NW,5.8,-,N/A,,Clear,320,2013-09-17 05:15:00
10:35 PM,58.1,44.2,60,29.90,10.0,NW,5.8,-,N/A,,Clear,320,2013-09-17 05:35:00
10:55 PM,57.6,44.1,61,29.90,10.0,West,4.6,-,N/A,,Clear,280,2013-09-17 05:55:00
11:15 PM,56.3,43.9,63,29.90,10.0,West,6.9,-,N/A,,Clear,260,2013-09-17 06:15:00
11:35 PM,57.0,43.9,61,29.90,10.0,West,5.8,-,N/A,,Clear,270,2013-09-17 06:35:00
11:55 PM,56.5,43.7,62,29.90,10.0,West,4.6,-,N/A,,Clear,280,2013-09-17 06:55:00